TimeCDT,TemperatureF,Dew PointF,Humidity,Sea Level PressureIn,VisibilityMPH,Wind Direction,Wind SpeedMPH,Gust SpeedMPH,PrecipitationIn,Events,Conditions,WindDirDegrees,DateUTC
12:15 AM,67.1,62.6,85,30.10,10.0,SSE,10.4,-,N/A,,Clear,160,2013-08-18 05:15:00
12:35 AM,66.9,62.6,86,30.10,10.0,South,10.4,-,N/A,,Clear,170,2013-08-18 05:35:00
12:55 AM,66.9,62.2,85,30.10,10.0,SSE,10.4,-,N/A,,Clear,160,2013-08-18 05:55:00
1:15 AM,66.7,62.1,85,30.10,10.0,South,10.4,16.1,N/A,,Clear,170,2013-08-18 06:15:00
1:35 AM,66.6,61.9,85,30.09,10.0,South,11.5,16.1,N/A,,Clear,170,2013-08-18 06:35:00
1:55 AM,67.1,61.9,83,30.09,10.0,South,15.0,18.4,N/A,,Clear,170,2013-08-18 06:55:00
2:15 AM,66.7,61.7,84,30.09,10.0,South,12.7,17.3,N/A,,Clear,170,2013-08-18 07:15:00
2:35 AM,66.2,61.7,85,30.08,10.0,SSE,11.5,-,N/A,,Clear,160,2013-08-18 07:35:00
2:55 AM,65.8,61.7,86,30.08,10.0,South,11.5,-,N/A,,Clear,170,2013-08-18 07:55:00
3:15 AM,65.5,61.7,88,30.08,10.0,South,11.5,-,N/A,,Clear,170,2013-08-18 08:15:00
3:35 AM,65.3,61.3,87,30.07,10.0,South,9.2,-,N/A,,Clear,170,2013-08-18 08:35:00
3:55 AM,64.9,61.3,88,30.07,10.0,SSE,10.4,-,N/A,,Clear,160,2013-08-18 08:55:00
4:15 AM,64.9,61.2,88,30.08,10.0,South,8.1,-,N/A,,Clear,170,2013-08-18 09:15:00
4:35 AM,64.9,61.2,88,30.08,10.0,South,6.9,-,N/A,,Scattered Clouds,170,2013-08-18 09:35:00
4:55 AM,64.8,61.2,88,30.08,10.0,South,8.1,-,N/A,,Mostly Cloudy,170,2013-08-18 09:55:00
5:15 AM,64.8,61.2,88,30.07,7.0,South,9.2,-,N/A,,Mostly Cloudy,170,2013-08-18 10:15:00
5:35 AM,64.4,60.8,88,30.07,7.0,South,8.1,-,N/A,,Scattered Clouds,170,2013-08-18 10:35:00
5:55 AM,64.4,61.2,89,30.07,7.0,SSE,8.1,-,N/A,,Mostly Cloudy,160,2013-08-18 10:55:00
6:15 AM,64.8,61.2,88,30.07,7.0,South,10.4,-,N/A,,Overcast,170,2013-08-18 11:15:00
6:35 AM,64.8,61.2,88,30.07,7.0,South,6.9,-,N/A,,Overcast,170,2013-08-18 11:35:00
6:55 AM,64.9,61.2,88,30.08,7.0,South,8.1,-,N/A,,Overcast,170,2013-08-18 11:55:00
7:15 AM,64.9,61.3,88,30.08,7.0,South,8.1,-,N/A,,Overcast,170,2013-08-18 12:15:00
7:35 AM,65.3,61.5,88,30.08,7.0,South,8.1,-,N/A,,Overcast,170,2013-08-18 12:35:00
7:55 AM,65.8,61.7,86,30.08,7.0,South,10.4,-,N/A,,Overcast,180,2013-08-18 12:55:00
8:15 AM,66.2,61.7,85,30.08,7.0,South,11.5,17.3,N/A,,Overcast,180,2013-08-18 13:15:00
8:35 AM,66.7,61.9,84,30.08,7.0,South,10.4,-,N/A,,Overcast,190,2013-08-18 13:35:00
8:55 AM,67.3,62.2,84,30.09,7.0,South,10.4,-,N/A,,Overcast,190,2013-08-18 13:55:00
9:15 AM,68.0,62.2,82,30.08,7.0,SSW,16.1,21.9,N/A,,Overcast,200,2013-08-18 14:15:00
9:35 AM,68.5,62.2,80,30.09,10.0,SSW,13.8,19.6,N/A,,Overcast,200,2013-08-18 14:35:00
9:55 AM,69.8,62.4,77,30.08,10.0,South,13.8,19.6,N/A,,Mostly Cloudy,190,2013-08-18 14:55:00
10:15 AM,71.1,62.2,74,30.08,10.0,South,13.8,-,N/A,,Scattered Clouds,190,2013-08-18 15:15:00
10:35 AM,72.1,62.4,71,30.07,10.0,South,15.0,-,N/A,,Scattered Clouds,190,2013-08-18 15:35:00
10:55 AM,73.9,62.4,67,30.07,10.0,South,15.0,18.4,N/A,,Clear,190,2013-08-18 15:55:00
11:15 AM,74.8,62.2,65,30.07,10.0,South,16.1,-,N/A,,Clear,190,2013-08-18 16:15:00
11:35 AM,76.1,62.8,63,30.07,10.0,South,15.0,19.6,N/A,,Scattered Clouds,180,2013-08-18 16:35:00
11:55 AM,76.1,62.6,63,30.07,10.0,SSW,13.8,21.9,N/A,,Scattered Clouds,200,2013-08-18 16:55:00
12:15 PM,75.4,62.8,65,30.08,10.0,SSW,16.1,-,N/A,,Scattered Clouds,200,2013-08-18 17:15:00
12:35 PM,76.6,63.0,62,30.07,10.0,South,16.1,20.7,N/A,,Scattered Clouds,180,2013-08-18 17:35:00
12:55 PM,77.5,63.3,61,30.07,10.0,South,15.0,24.2,N/A,,Clear,190,2013-08-18 17:55:00
1:15 PM,78.4,63.7,60,30.06,10.0,South,15.0,21.9,N/A,,Clear,180,2013-08-18 18:15:00
1:35 PM,78.4,63.5,60,30.05,10.0,South,17.3,23.0,N/A,,Clear,180,2013-08-18 18:35:00
1:55 PM,79.2,64.0,60,30.05,10.0,South,15.0,24.2,N/A,,Clear,190,2013-08-18 18:55:00
2:15 PM,79.0,63.5,59,30.04,10.0,South,15.0,26.5,N/A,,Clear,180,2013-08-18 19:15:00
2:35 PM,78.8,63.3,59,30.05,10.0,South,15.0,25.3,N/A,,Clear,170,2013-08-18 19:35:00
2:55 PM,78.6,63.1,59,30.04,10.0,South,18.4,25.3,N/A,,Clear,170,2013-08-18 19:55:00
3:15 PM,79.3,63.0,57,30.04,10.0,SSE,21.9,26.5,N/A,,Clear,160,2013-08-18 20:15:00
3:35 PM,80.1,63.5,57,30.04,10.0,South,16.1,24.2,N/A,,Clear,180,2013-08-18 20:35:00
3:55 PM,80.1,63.3,56,30.04,10.0,South,15.0,-,N/A,,Clear,180,2013-08-18 20:55:00
4:15 PM,80.6,63.7,56,30.04,10.0,South,15.0,20.7,N/A,,Clear,170,2013-08-18 21:15:00
4:35 PM,80.4,63.7,57,30.05,10.0,South,9.2,18.4,N/A,,Scattered Clouds,170,2013-08-18 21:35:00
4:55 PM,80.2,63.7,57,30.04,10.0,South,13.8,17.3,N/A,,Scattered Clouds,190,2013-08-18 21:55:00
5:15 PM,79.9,63.5,57,30.04,10.0,SSW,13.8,-,N/A,,Clear,200,2013-08-18 22:15:00
5:35 PM,79.7,63.0,56,30.04,10.0,South,12.7,20.7,N/A,,Clear,180,2013-08-18 22:35:00
5:55 PM,79.0,63.3,59,30.04,10.0,South,11.5,-,N/A,,Clear,170,2013-08-18 22:55:00
6:15 PM,78.6,63.0,59,30.05,10.0,South,10.4,-,N/A,,Clear,180,2013-08-18 23:15:00
6:35 PM,78.1,62.8,59,30.05,10.0,South,11.5,-,N/A,,Clear,180,2013-08-18 23:35:00
6:55 PM,77.7,63.0,60,30.05,10.0,South,9.2,-,N/A,,Clear,190,2013-08-18 23:55:00
7:15 PM,77.4,63.0,61,30.05,10.0,SSE,10.4,-,N/A,,Clear,150,2013-08-19 00:15:00
7:35 PM,76.8,63.0,62,30.05,10.0,SSE,8.1,-,N/A,,Clear,160,2013-08-19 00:35:00
7:55 PM,75.4,63.5,66,30.05,10.0,SSE,6.9,-,N/A,,Clear,160,2013-08-19 00:55:00
8:15 PM,73.8,63.5,70,30.04,10.0,SSE,6.9,-,N/A,,Clear,150,2013-08-19 01:15:00
8:35 PM,72.7,63.7,73,30.04,10.0,SSE,8.1,-,N/A,,Clear,150,2013-08-19 01:35:00
8:55 PM,71.6,63.9,76,30.04,10.0,SSE,8.1,-,N/A,,Clear,160,2013-08-19 01:55:00
9:15 PM,71.2,63.5,76,30.07,10.0,SSE,8.1,-,N/A,,Clear,160,2013-08-19 02:15:00
9:35 PM,71.6,63.7,76,30.07,10.0,SSE,11.5,-,N/A,,Clear,160,2013-08-19 02:35:00
9:55 PM,72.0,63.5,75,30.07,10.0,SSE,10.4,-,N/A,,Clear,160,2013-08-19 02:55:00
10:15 PM,72.0,63.5,75,30.07,10.0,SSE,15.0,-,N/A,,Clear,160,2013-08-19 03:15:00
10:35 PM,71.8,63.1,74,30.08,10.0,South,8.1,-,N/A,,Clear,180,2013-08-19 03:35:00
10:55 PM,71.8,62.8,73,30.07,10.0,South,10.4,20.7,N/A,,Clear,180,2013-08-19 03:55:00
11:15 PM,71.6,62.8,74,30.06,10.0,South,12.7,-,N/A,,Clear,180,2013-08-19 04:15:00
11:35 PM,71.6,62.6,73,30.05,10.0,South,11.5,-,N/A,,Clear,180,2013-08-19 04:35:00
11:55 PM,71.6,62.6,73,30.04,10.0,South,11.5,-,N/A,,Clear,170,2013-08-19 04:55:00